TimeCDT,TemperatureF,Dew PointF,Humidity,Sea Level PressureIn,VisibilityMPH,Wind Direction,Wind SpeedMPH,Gust SpeedMPH,PrecipitationIn,Events,Conditions,WindDirDegrees,DateUTC
12:10 AM,73.4,71.6,94,29.88,2.0,SE,8.1,-,N/A,,Overcast,130,2013-04-17 05:10:00
12:51 AM,73.0,72.0,96,29.83,2.0,SE,9.2,-,0.00,,Light Drizzle,130,2013-04-17 05:51:00
1:51 AM,73.9,73.0,97,29.82,2.0,SE,10.4,-,0.00,,Light Drizzle,140,2013-04-17 06:51:00
2:44 AM,73.4,73.4,100,29.85,2.0,SSE,10.4,-,0.00,,Light Drizzle,150,2013-04-17 07:44:00
2:51 AM,73.9,73.0,97,29.79,2.0,SE,11.5,-,0.00,,Light Drizzle,140,2013-04-17 07:51:00
3:51 AM,73.9,72.0,93,29.79,2.0,SSE,13.8,20.7,0.00,,Light Drizzle,150,2013-04-17 08:51:00
4:40 AM,73.4,71.6,94,29.85,4.0,SSE,13.8,-,0.00,,Overcast,150,2013-04-17 09:40:00
4:51 AM,73.9,72.0,93,29.79,5.0,SE,15.0,-,0.00,,Overcast,140,2013-04-17 09:51:00
5:14 AM,73.4,71.6,94,29.85,6.0,SE,11.5,-,N/A,,Overcast,140,2013-04-17 10:14:00
5:51 AM,73.0,71.1,93,29.80,6.0,SE,12.7,-,N/A,,Overcast,140,2013-04-17 10:51:00
6:51 AM,73.0,71.1,93,29.81,6.0,SSE,10.4,-,N/A,,Overcast,150,2013-04-17 11:51:00
7:01 AM,73.4,71.6,94,29.86,6.0,SE,10.4,-,N/A,,Overcast,140,2013-04-17 12:01:00
7:51 AM,73.0,70.0,90,29.81,5.0,SE,12.7,-,N/A,,Overcast,130,2013-04-17 12:51:00
8:51 AM,73.9,70.0,87,29.81,5.0,SE,11.5,-,N/A,,Overcast,140,2013-04-17 13:51:00
9:51 AM,73.9,70.0,87,29.81,8.0,SSE,15.0,-,N/A,,Overcast,160,2013-04-17 14:51:00
10:26 AM,75.2,69.8,83,29.85,7.0,SE,13.8,-,N/A,,Overcast,140,2013-04-17 15:26:00
10:51 AM,75.0,69.1,82,29.80,9.0,SSE,13.8,-,N/A,,Overcast,150,2013-04-17 15:51:00
11:51 AM,75.9,69.1,79,29.79,9.0,SSE,17.3,-,N/A,,Overcast,150,2013-04-17 16:51:00
12:51 PM,77.0,69.1,76,29.76,10.0,SSE,12.7,-,N/A,,Overcast,150,2013-04-17 17:51:00
1:51 PM,78.1,70.0,76,29.74,9.0,SSE,15.0,-,N/A,,Overcast,150,2013-04-17 18:51:00
2:51 PM,79.0,71.1,77,29.70,10.0,SSE,16.1,21.9,0.00,,Overcast,150,2013-04-17 19:51:00
3:51 PM,78.1,71.1,79,29.67,10.0,ESE,15.0,-,N/A,,Overcast,120,2013-04-17 20:51:00
4:51 PM,78.1,72.0,81,29.65,10.0,ESE,17.3,-,N/A,,Overcast,120,2013-04-17 21:51:00
5:51 PM,79.0,72.0,79,29.63,7.0,SE,13.8,-,N/A,,Overcast,130,2013-04-17 22:51:00
6:51 PM,78.1,71.1,79,29.61,7.0,ESE,11.5,-,N/A,,Overcast,110,2013-04-17 23:51:00
7:12 PM,78.8,71.6,78,29.67,7.0,East,8.1,-,N/A,,Overcast,90,2013-04-18 00:12:00
7:35 PM,77.0,71.6,83,29.66,8.0,East,11.5,-,N/A,,Overcast,100,2013-04-18 00:35:00
7:51 PM,78.1,71.1,79,29.62,9.0,East,8.1,-,N/A,,Overcast,90,2013-04-18 00:51:00
8:51 PM,78.1,71.1,79,29.63,7.0,ESE,15.0,-,N/A,,Overcast,120,2013-04-18 01:51:00
9:51 PM,77.0,71.1,82,29.65,8.0,ESE,11.5,-,N/A,,Overcast,120,2013-04-18 02:51:00
10:20 PM,77.0,71.6,83,29.71,7.0,SE,12.7,-,N/A,,Overcast,130,2013-04-18 03:20:00
10:51 PM,75.9,72.0,87,29.66,6.0,SE,15.0,-,N/A,,Overcast,130,2013-04-18 03:51:00
11:51 PM,75.9,71.1,85,29.66,6.0,SE,13.8,-,N/A,,Overcast,140,2013-04-18 04:51:00